HORIZONS-2

Last updated on Tue Oct 08 2024 00:02:38 GMT+0000 (Coordinated Universal Time)

1 32388U 07063B 24281.37549336 -.00000242 00000+0 00000+0 0 9994 2 32388 0.9967 88.1771 0002023 119.9268 229.8162 1.00273763 61615
UTC large
Height (km)
Speed (km/s)
/
Latitude / Longitude
Inclination (degrees)
Orbital Period (minutes)
Azimuth
Elevation
Range (km)
Doppler Factor

Next 0 passes for location: London (51.5072 / 0.1276)

Sorry there are no passes over London.